User: anonymous   Login
Location: Kuffner-Sternwarte
(48.2130°N, 16.2960°E)
Time: 04:54:49
(UTC+01:00)
Language:

COROT - Orbit

View from above orbital plane
View from above orbital plane
View from above satellite
View from above satellite

Ground track
Ground track

The orbit data is extracted from the following two-line orbital elements,

1 29678U 06063A   18318.55524967  .00000130  00000-0  25684-4 0  9994
2 29678  90.0385  17.2973 0202287 169.5336 191.0179 14.44222630614447
Epoch (UTC): 14 November 2018 13:19:33
Eccentricity: 0.0202287
inclination: 90.0385°
perigee height: 600 km
apogee height: 888 km
right ascension of ascending node: 17.2973°
argument of perigee: 169.5336°
revolutions per day: 14.44222630
mean anomaly at epoch: 191.0179°
orbit number at epoch: 61444

The dashed part of the orbit path shows where the satellite is in the earth's shadow,  

DLR